Year,Month,Day,Hour,Minute,Value (Times are PST for temperature in C)
2014,10,10,00,00,10.80
2014,10,10,00,01,10.70
2014,10,10,00,02,10.70
2014,10,10,00,03,10.70
2014,10,10,00,04,10.60
2014,10,10,00,05,10.60
2014,10,10,00,06,10.60
2014,10,10,00,07,10.60
2014,10,10,00,08,10.60
2014,10,10,00,09,10.50
2014,10,10,00,10,10.50
2014,10,10,00,11,10.50
2014,10,10,00,12,10.40
2014,10,10,00,13,10.40
2014,10,10,00,14,10.40
2014,10,10,00,15,10.40
2014,10,10,00,16,10.50
2014,10,10,00,17,10.50
2014,10,10,00,18,10.60
2014,10,10,00,19,10.60
2014,10,10,00,20,10.60
2014,10,10,00,21,10.60
2014,10,10,00,22,10.70
2014,10,10,00,23,10.70
2014,10,10,00,24,10.70
2014,10,10,00,25,10.70
2014,10,10,00,26,10.70
2014,10,10,00,27,10.60
2014,10,10,00,28,10.60
2014,10,10,00,29,10.60
2014,10,10,00,30,10.60
2014,10,10,00,31,10.60
2014,10,10,00,32,10.60
2014,10,10,00,33,10.60
2014,10,10,00,34,10.60
2014,10,10,00,35,10.60
2014,10,10,00,36,10.60
2014,10,10,00,37,10.60
2014,10,10,00,38,10.60
2014,10,10,00,39,10.60
2014,10,10,00,40,10.60
2014,10,10,00,41,10.60
2014,10,10,00,42,10.60
2014,10,10,00,43,10.60
2014,10,10,00,44,10.60
2014,10,10,00,45,10.60
2014,10,10,00,46,10.60
2014,10,10,00,47,10.60
2014,10,10,00,48,10.70
2014,10,10,00,49,10.70
2014,10,10,00,50,10.70
2014,10,10,00,51,10.70
2014,10,10,00,52,10.70
2014,10,10,00,53,10.70
2014,10,10,00,54,10.70
2014,10,10,00,55,10.70
2014,10,10,00,56,10.70
2014,10,10,00,57,10.70
2014,10,10,00,58,10.70
2014,10,10,00,59,10.70
2014,10,10,01,00,10.70
2014,10,10,01,01,10.70
2014,10,10,01,02,10.70
2014,10,10,01,03,10.60
2014,10,10,01,04,10.70
2014,10,10,01,05,10.60
2014,10,10,01,06,10.60
2014,10,10,01,07,10.60
2014,10,10,01,08,10.60
2014,10,10,01,09,10.60
2014,10,10,01,10,10.60
2014,10,10,01,11,10.60
2014,10,10,01,12,10.60
2014,10,10,01,13,10.60
2014,10,10,01,14,10.60
2014,10,10,01,15,10.60
2014,10,10,01,16,10.60
2014,10,10,01,17,10.60
2014,10,10,01,18,10.60
2014,10,10,01,19,10.60
2014,10,10,01,20,10.60
2014,10,10,01,21,10.60
2014,10,10,01,22,10.60
2014,10,10,01,23,10.60
2014,10,10,01,24,10.60
2014,10,10,01,25,10.60
2014,10,10,01,26,10.50
2014,10,10,01,27,10.40
2014,10,10,01,28,10.50
2014,10,10,01,29,10.40
2014,10,10,01,30,10.50
2014,10,10,01,31,10.50
2014,10,10,01,32,10.50
2014,10,10,01,33,10.50
2014,10,10,01,34,10.50
2014,10,10,01,35,10.50
2014,10,10,01,36,10.50
2014,10,10,01,37,10.50
2014,10,10,01,38,10.50
2014,10,10,01,39,10.50
2014,10,10,01,40,10.50
2014,10,10,01,41,10.60
2014,10,10,01,42,10.60
2014,10,10,01,43,10.60
2014,10,10,01,44,10.50
2014,10,10,01,45,10.60
2014,10,10,01,46,10.60
2014,10,10,01,47,10.50
2014,10,10,01,48,10.50
2014,10,10,01,49,10.50
2014,10,10,01,50,10.50
2014,10,10,01,51,10.50
2014,10,10,01,52,10.50
2014,10,10,01,53,10.50
2014,10,10,01,54,10.50
2014,10,10,01,55,10.50
2014,10,10,01,56,10.50
2014,10,10,01,57,10.50
2014,10,10,01,58,10.50
2014,10,10,01,59,10.50
2014,10,10,02,00,10.50
2014,10,10,02,01,10.40
2014,10,10,02,02,10.40
2014,10,10,02,03,10.40
2014,10,10,02,04,10.40
2014,10,10,02,05,10.40
2014,10,10,02,06,10.40
2014,10,10,02,07,10.40
2014,10,10,02,08,10.40
2014,10,10,02,09,10.30
2014,10,10,02,10,10.30
2014,10,10,02,11,10.30
2014,10,10,02,12,10.30
2014,10,10,02,13,10.30
2014,10,10,02,14,10.40
2014,10,10,02,15,10.40
2014,10,10,02,16,10.40
2014,10,10,02,17,10.40
2014,10,10,02,18,10.40
2014,10,10,02,19,10.40
2014,10,10,02,20,10.40
2014,10,10,02,21,10.40
2014,10,10,02,22,10.40
2014,10,10,02,23,10.40
2014,10,10,02,24,10.40
2014,10,10,02,25,10.40
2014,10,10,02,26,10.40
2014,10,10,02,27,10.40
2014,10,10,02,28,10.40
2014,10,10,02,29,10.40
2014,10,10,02,30,10.40
2014,10,10,02,31,10.50
2014,10,10,02,32,10.50
2014,10,10,02,33,10.50
2014,10,10,02,34,10.50
2014,10,10,02,35,10.50
2014,10,10,02,36,10.60
2014,10,10,02,37,10.60
2014,10,10,02,38,10.60
2014,10,10,02,39,10.60
2014,10,10,02,40,10.60
2014,10,10,02,41,10.60
2014,10,10,02,42,10.60
2014,10,10,02,43,10.60
2014,10,10,02,44,10.60
2014,10,10,02,45,10.60
2014,10,10,02,46,10.60
2014,10,10,02,47,10.60
2014,10,10,02,48,10.60
2014,10,10,02,49,10.60
2014,10,10,02,50,10.50
2014,10,10,02,51,10.50
2014,10,10,02,52,10.50
2014,10,10,02,53,10.40
2014,10,10,02,54,10.40
2014,10,10,02,55,10.40
2014,10,10,02,56,10.40
2014,10,10,02,57,10.30
2014,10,10,02,58,10.30
2014,10,10,02,59,10.30
2014,10,10,03,00,10.20
2014,10,10,03,01,10.20
2014,10,10,03,02,10.20
2014,10,10,03,03,10.20
2014,10,10,03,04,10.20
2014,10,10,03,05,10.20
2014,10,10,03,06,10.20
2014,10,10,03,07,10.10
2014,10,10,03,08,10.10
2014,10,10,03,09,10.10
2014,10,10,03,10,10.10
2014,10,10,03,11,10.10
2014,10,10,03,12,10.00
2014,10,10,03,13,10.00
2014,10,10,03,14,10.00
2014,10,10,03,15,10.00
2014,10,10,03,16,9.90
2014,10,10,03,17,9.90
2014,10,10,03,18,9.90
2014,10,10,03,19,9.90
2014,10,10,03,20,9.90
2014,10,10,03,21,9.90
2014,10,10,03,22,9.80
2014,10,10,03,23,9.80
2014,10,10,03,24,9.70
2014,10,10,03,25,9.70
2014,10,10,03,26,9.70
2014,10,10,03,27,9.60
2014,10,10,03,28,9.60
2014,10,10,03,29,9.50
2014,10,10,03,30,9.50
2014,10,10,03,31,9.50
2014,10,10,03,32,9.50
2014,10,10,03,33,9.50
2014,10,10,03,34,9.50
2014,10,10,03,35,9.60
2014,10,10,03,36,9.60
2014,10,10,03,37,9.60
2014,10,10,03,38,9.70
2014,10,10,03,39,9.70
2014,10,10,03,40,9.70
2014,10,10,03,41,9.70
2014,10,10,03,42,9.70
2014,10,10,03,43,9.70
2014,10,10,03,44,9.70
2014,10,10,03,45,9.80
2014,10,10,03,46,9.80
2014,10,10,03,47,9.80
2014,10,10,03,48,9.80
2014,10,10,03,49,9.80
2014,10,10,03,50,9.80
2014,10,10,03,51,9.80
2014,10,10,03,52,9.70
2014,10,10,03,53,9.70
2014,10,10,03,54,9.70
2014,10,10,03,55,9.70
2014,10,10,03,56,9.70
2014,10,10,03,57,9.70
2014,10,10,03,58,9.70
2014,10,10,03,59,9.70
2014,10,10,04,00,9.70
2014,10,10,04,01,9.60
2014,10,10,04,02,9.60
2014,10,10,04,03,9.60
2014,10,10,04,04,9.60
2014,10,10,04,05,9.60
2014,10,10,04,06,9.70
2014,10,10,04,07,9.70
2014,10,10,04,08,9.70
2014,10,10,04,09,9.60
2014,10,10,04,10,9.60
2014,10,10,04,11,9.60
2014,10,10,04,12,9.60
2014,10,10,04,13,9.60
2014,10,10,04,14,9.60
2014,10,10,04,15,9.60
2014,10,10,04,16,9.50
2014,10,10,04,17,9.50
2014,10,10,04,18,9.50
2014,10,10,04,19,9.50
2014,10,10,04,20,9.50
2014,10,10,04,21,9.40
2014,10,10,04,22,9.40
2014,10,10,04,23,9.40
2014,10,10,04,24,9.40
2014,10,10,04,25,9.40
2014,10,10,04,26,9.40
2014,10,10,04,27,9.50
2014,10,10,04,28,9.50
2014,10,10,04,29,9.50
2014,10,10,04,30,9.50
2014,10,10,04,31,9.50
2014,10,10,04,32,9.50
2014,10,10,04,33,9.40
2014,10,10,04,34,9.40
2014,10,10,04,35,9.40
2014,10,10,04,36,9.40
2014,10,10,04,37,9.30
2014,10,10,04,38,9.30
2014,10,10,04,39,9.30
2014,10,10,04,40,9.30
2014,10,10,04,41,9.30
2014,10,10,04,42,9.20
2014,10,10,04,43,9.20
2014,10,10,04,44,9.20
2014,10,10,04,45,9.20
2014,10,10,04,46,9.20
2014,10,10,04,47,9.20
2014,10,10,04,48,9.20
2014,10,10,04,49,9.20
2014,10,10,04,50,9.20
2014,10,10,04,51,9.20
2014,10,10,04,52,9.20
2014,10,10,04,53,9.20
2014,10,10,04,54,9.20
2014,10,10,04,55,9.20
2014,10,10,04,56,9.20
2014,10,10,04,57,9.10
2014,10,10,04,58,9.10
2014,10,10,04,59,9.10
2014,10,10,05,00,9.00
2014,10,10,05,01,9.00
2014,10,10,05,02,9.00
2014,10,10,05,03,9.00
2014,10,10,05,04,9.00
2014,10,10,05,05,9.00
2014,10,10,05,06,9.00
2014,10,10,05,07,9.00
2014,10,10,05,08,8.90
2014,10,10,05,09,8.90
2014,10,10,05,10,8.90
2014,10,10,05,11,8.90
2014,10,10,05,12,8.90
2014,10,10,05,13,8.90
2014,10,10,05,14,8.80
2014,10,10,05,15,8.80
2014,10,10,05,16,8.70
2014,10,10,05,17,8.60
2014,10,10,05,18,8.60
2014,10,10,05,19,8.50
2014,10,10,05,20,8.50
2014,10,10,05,21,8.40
2014,10,10,05,22,8.40
2014,10,10,05,23,8.40
2014,10,10,05,24,8.40
2014,10,10,05,25,8.40
2014,10,10,05,26,8.40
2014,10,10,05,27,8.40
2014,10,10,05,28,8.40
2014,10,10,05,29,8.30
2014,10,10,05,30,8.30
2014,10,10,05,31,8.30
2014,10,10,05,32,8.30
2014,10,10,05,33,8.30
2014,10,10,05,34,8.30
2014,10,10,05,35,8.30
2014,10,10,05,36,8.20
2014,10,10,05,37,8.20
2014,10,10,05,38,8.20
2014,10,10,05,39,8.20
2014,10,10,05,40,8.20
2014,10,10,05,41,8.20
2014,10,10,05,42,8.20
2014,10,10,05,43,8.20
2014,10,10,05,44,8.20
2014,10,10,05,45,8.20
2014,10,10,05,46,8.20
2014,10,10,05,47,8.20
2014,10,10,05,48,8.20
2014,10,10,05,49,8.20
2014,10,10,05,50,8.30
2014,10,10,05,51,8.30
2014,10,10,05,52,8.30
2014,10,10,05,53,8.40
2014,10,10,05,54,8.40
2014,10,10,05,55,8.40
2014,10,10,05,56,8.50
2014,10,10,05,57,8.50
2014,10,10,05,58,8.60
2014,10,10,05,59,8.60
2014,10,10,06,00,8.60
2014,10,10,06,01,8.60
2014,10,10,06,02,8.60
2014,10,10,06,03,8.70
2014,10,10,06,04,8.70
2014,10,10,06,05,8.70
2014,10,10,06,06,8.70
2014,10,10,06,07,8.70
2014,10,10,06,08,8.70
2014,10,10,06,09,8.70
2014,10,10,06,10,8.80
2014,10,10,06,11,8.80
2014,10,10,06,12,8.80
2014,10,10,06,13,8.80
2014,10,10,06,14,8.90
2014,10,10,06,15,8.90
2014,10,10,06,16,8.90
2014,10,10,06,17,8.90
2014,10,10,06,18,8.90
2014,10,10,06,19,8.90
2014,10,10,06,20,9.00
2014,10,10,06,21,9.00
2014,10,10,06,22,9.00
2014,10,10,06,23,9.00
2014,10,10,06,24,9.10
2014,10,10,06,25,9.10
2014,10,10,06,26,9.10
2014,10,10,06,27,9.10
2014,10,10,06,28,9.10
2014,10,10,06,29,9.10
2014,10,10,06,30,9.10
2014,10,10,06,31,9.20
2014,10,10,06,32,9.20
2014,10,10,06,33,9.20
2014,10,10,06,34,9.20
2014,10,10,06,35,9.20
2014,10,10,06,36,9.30
2014,10,10,06,37,9.30
2014,10,10,06,38,9.30
2014,10,10,06,39,9.30
2014,10,10,06,40,9.30
2014,10,10,06,41,9.30
2014,10,10,06,42,9.30
2014,10,10,06,43,9.20
2014,10,10,06,44,9.20
2014,10,10,06,45,9.20
2014,10,10,06,46,9.20
2014,10,10,06,47,9.20
2014,10,10,06,48,9.20
2014,10,10,06,49,9.20
2014,10,10,06,50,9.20
2014,10,10,06,51,9.20
2014,10,10,06,52,9.10
2014,10,10,06,53,9.10
2014,10,10,06,54,9.10
2014,10,10,06,55,9.10
2014,10,10,06,56,9.10
2014,10,10,06,57,9.10
2014,10,10,06,58,9.10
2014,10,10,06,59,9.10
2014,10,10,07,00,9.10
2014,10,10,07,01,9.10
2014,10,10,07,02,9.10
2014,10,10,07,03,9.20
2014,10,10,07,04,9.10
2014,10,10,07,05,9.20
2014,10,10,07,06,9.20
2014,10,10,07,07,9.10
2014,10,10,07,08,9.10
2014,10,10,07,09,9.10
2014,10,10,07,10,9.10
2014,10,10,07,11,9.10
2014,10,10,07,12,9.10
2014,10,10,07,13,9.10
2014,10,10,07,14,9.10
2014,10,10,07,15,9.10
2014,10,10,07,16,9.10
2014,10,10,07,17,9.10
2014,10,10,07,18,9.10
2014,10,10,07,19,9.10
2014,10,10,07,20,9.10
2014,10,10,07,21,9.10
2014,10,10,07,22,9.10
2014,10,10,07,23,9.20
2014,10,10,07,24,9.10
2014,10,10,07,25,9.20
2014,10,10,07,26,9.20
2014,10,10,07,27,9.20
2014,10,10,07,28,9.20
2014,10,10,07,29,9.20
2014,10,10,07,30,9.20
2014,10,10,07,31,9.10
2014,10,10,07,32,9.10
2014,10,10,07,33,9.10
2014,10,10,07,34,9.10
2014,10,10,07,35,9.10
2014,10,10,07,36,9.10
2014,10,10,07,37,9.10
2014,10,10,07,38,9.00
2014,10,10,07,39,9.00
2014,10,10,07,40,8.90
2014,10,10,07,41,8.90
2014,10,10,07,42,8.90
2014,10,10,07,43,8.90
2014,10,10,07,44,8.90
2014,10,10,07,45,8.90
2014,10,10,07,46,8.80
2014,10,10,07,47,8.80
2014,10,10,07,48,8.80
2014,10,10,07,49,8.80
2014,10,10,07,50,8.80
2014,10,10,07,51,8.80
2014,10,10,07,52,8.80
2014,10,10,07,53,8.80
2014,10,10,07,54,8.80
2014,10,10,07,55,8.80
2014,10,10,07,56,8.80
2014,10,10,07,57,8.80
2014,10,10,07,58,8.80
2014,10,10,07,59,8.80
2014,10,10,08,00,8.80
2014,10,10,08,01,8.80
2014,10,10,08,02,8.80
2014,10,10,08,03,8.80
2014,10,10,08,04,8.80
2014,10,10,08,05,8.80
2014,10,10,08,06,8.80
2014,10,10,08,07,8.80
2014,10,10,08,08,8.80
2014,10,10,08,09,8.80
2014,10,10,08,10,8.80
2014,10,10,08,11,8.80
2014,10,10,08,12,8.80
2014,10,10,08,13,8.80
2014,10,10,08,14,8.90
2014,10,10,08,15,8.90
2014,10,10,08,16,8.90
2014,10,10,08,17,8.90
2014,10,10,08,18,8.90
2014,10,10,08,19,9.00
2014,10,10,08,20,9.00
2014,10,10,08,21,9.10
2014,10,10,08,22,9.10
2014,10,10,08,23,9.20
2014,10,10,08,24,9.20
2014,10,10,08,25,9.30
2014,10,10,08,26,9.30
2014,10,10,08,27,9.40
2014,10,10,08,28,9.40
2014,10,10,08,29,9.50
2014,10,10,08,30,9.60
2014,10,10,08,31,9.70
2014,10,10,08,32,9.70
2014,10,10,08,33,9.80
2014,10,10,08,34,9.80
2014,10,10,08,35,9.90
2014,10,10,08,36,10.00
2014,10,10,08,37,10.00
2014,10,10,08,38,10.10
2014,10,10,08,39,10.20
2014,10,10,08,40,10.20
2014,10,10,08,41,10.30
2014,10,10,08,42,10.40
2014,10,10,08,43,10.50
2014,10,10,08,44,10.60
2014,10,10,08,45,10.70
2014,10,10,08,46,10.70
2014,10,10,08,47,10.70
2014,10,10,08,48,10.80
2014,10,10,08,49,10.80
2014,10,10,08,50,10.80
2014,10,10,08,51,10.80
2014,10,10,08,52,10.80
2014,10,10,08,53,10.80
2014,10,10,08,54,10.80
2014,10,10,08,55,10.80
2014,10,10,08,56,10.90
2014,10,10,08,57,10.90
2014,10,10,08,58,10.90
2014,10,10,08,59,10.90
2014,10,10,09,00,10.90
2014,10,10,09,01,10.90
2014,10,10,09,02,10.90
2014,10,10,09,03,10.90
2014,10,10,09,04,10.90
2014,10,10,09,05,11.00
2014,10,10,09,06,11.00
2014,10,10,09,07,11.00
2014,10,10,09,08,11.00
2014,10,10,09,09,11.00
2014,10,10,09,10,11.00
2014,10,10,09,11,11.00
2014,10,10,09,12,11.00
2014,10,10,09,13,11.00
2014,10,10,09,14,11.00
2014,10,10,09,15,10.90
2014,10,10,09,16,10.90
2014,10,10,09,17,10.90
2014,10,10,09,18,10.90
2014,10,10,09,19,10.90
2014,10,10,09,20,10.90
2014,10,10,09,21,11.00
2014,10,10,09,22,11.00
2014,10,10,09,23,10.90
2014,10,10,09,24,11.00
2014,10,10,09,25,11.00
2014,10,10,09,26,11.00
2014,10,10,09,27,11.00
2014,10,10,09,28,11.00
2014,10,10,09,29,11.00
2014,10,10,09,30,11.00
2014,10,10,09,31,11.00
2014,10,10,09,32,11.00
2014,10,10,09,33,11.00
2014,10,10,09,34,10.90
2014,10,10,09,35,11.00
2014,10,10,09,36,11.00
2014,10,10,09,37,11.00
2014,10,10,09,38,11.00
2014,10,10,09,39,11.00
2014,10,10,09,40,11.00
2014,10,10,09,41,11.00
2014,10,10,09,42,11.00
2014,10,10,09,43,11.00
2014,10,10,09,44,11.00
2014,10,10,09,45,11.00
2014,10,10,09,46,11.00
2014,10,10,09,47,11.00
2014,10,10,09,48,11.00
2014,10,10,09,49,11.00
2014,10,10,09,50,11.10
2014,10,10,09,51,11.10
2014,10,10,09,52,11.10
2014,10,10,09,53,11.10
2014,10,10,09,54,11.10
2014,10,10,09,55,11.10
2014,10,10,09,56,11.20
2014,10,10,09,57,11.20
2014,10,10,09,58,11.20
2014,10,10,09,59,11.20
2014,10,10,10,00,11.30
2014,10,10,10,01,11.30
2014,10,10,10,02,11.40
2014,10,10,10,03,11.40
2014,10,10,10,04,11.40
2014,10,10,10,05,11.40
2014,10,10,10,06,11.40
2014,10,10,10,07,11.40
2014,10,10,10,08,11.40
2014,10,10,10,09,11.50
2014,10,10,10,10,11.50
2014,10,10,10,11,11.50
2014,10,10,10,12,11.50
2014,10,10,10,13,11.50
2014,10,10,10,14,11.60
2014,10,10,10,15,11.60
2014,10,10,10,16,11.60
2014,10,10,10,17,11.60
2014,10,10,10,18,11.70
2014,10,10,10,19,11.70
2014,10,10,10,20,11.70
2014,10,10,10,21,11.70
2014,10,10,10,22,11.80
2014,10,10,10,23,11.80
2014,10,10,10,24,11.80
2014,10,10,10,25,11.80
2014,10,10,10,26,11.90
2014,10,10,10,27,11.90
2014,10,10,10,28,12.00
2014,10,10,10,29,12.10
2014,10,10,10,30,12.20
2014,10,10,10,31,12.30
2014,10,10,10,32,12.40
2014,10,10,10,33,12.50
2014,10,10,10,34,12.60
2014,10,10,10,35,12.70
2014,10,10,10,36,12.80
2014,10,10,10,37,12.90
2014,10,10,10,38,13.00
2014,10,10,10,39,13.10
2014,10,10,10,40,13.20
2014,10,10,10,41,13.30
2014,10,10,10,42,13.40
2014,10,10,10,43,13.50
2014,10,10,10,44,13.70
2014,10,10,10,45,13.80
2014,10,10,10,46,13.90
2014,10,10,10,47,14.00
2014,10,10,10,48,14.10
2014,10,10,10,49,14.30
2014,10,10,10,50,14.40
2014,10,10,10,51,14.50
2014,10,10,10,52,14.60
2014,10,10,10,53,14.80
2014,10,10,10,54,14.90
2014,10,10,10,55,15.00
2014,10,10,10,56,15.20
2014,10,10,10,57,15.30
2014,10,10,10,58,15.40
2014,10,10,10,59,15.50
2014,10,10,11,00,15.70
2014,10,10,11,01,15.80
2014,10,10,11,02,15.90
2014,10,10,11,03,16.00
2014,10,10,11,04,16.10
2014,10,10,11,05,16.20
2014,10,10,11,06,16.30
2014,10,10,11,07,16.30
2014,10,10,11,08,16.40
2014,10,10,11,09,16.50
2014,10,10,11,10,16.60
2014,10,10,11,11,16.60
2014,10,10,11,12,16.70
2014,10,10,11,13,16.80
2014,10,10,11,14,16.80
2014,10,10,11,15,16.90
2014,10,10,11,16,16.90
2014,10,10,11,17,16.90
2014,10,10,11,18,17.00
2014,10,10,11,19,17.10
2014,10,10,11,20,17.10
2014,10,10,11,21,17.20
2014,10,10,11,22,17.30
2014,10,10,11,23,17.30
2014,10,10,11,24,17.40
2014,10,10,11,25,17.50
2014,10,10,11,26,17.50
2014,10,10,11,27,17.60
2014,10,10,11,28,17.70
2014,10,10,11,29,17.70
2014,10,10,11,30,17.80
2014,10,10,11,31,17.80
2014,10,10,11,32,17.80
2014,10,10,11,33,17.90
2014,10,10,11,34,18.00
2014,10,10,11,35,18.00
2014,10,10,11,36,18.10
2014,10,10,11,37,18.10
2014,10,10,11,38,18.10
2014,10,10,11,39,18.20
2014,10,10,11,40,18.20
2014,10,10,11,41,18.30
2014,10,10,11,42,18.30
2014,10,10,11,43,18.40
2014,10,10,11,44,18.40
2014,10,10,11,45,18.40
2014,10,10,11,46,18.50
2014,10,10,11,47,18.60
2014,10,10,11,48,18.60
2014,10,10,11,49,18.60
2014,10,10,11,50,18.60
2014,10,10,11,51,18.60
2014,10,10,11,52,18.60
2014,10,10,11,53,18.70
2014,10,10,11,54,18.70
2014,10,10,11,55,18.60
2014,10,10,11,56,18.60
2014,10,10,11,57,18.60
2014,10,10,11,58,18.60
2014,10,10,11,59,18.60
2014,10,10,12,00,18.60
2014,10,10,12,01,18.60
2014,10,10,12,02,18.60
2014,10,10,12,03,18.60
2014,10,10,12,04,18.60
2014,10,10,12,05,18.60
2014,10,10,12,06,18.60
2014,10,10,12,07,18.50
2014,10,10,12,08,18.50
2014,10,10,12,09,18.50
2014,10,10,12,10,18.50
2014,10,10,12,11,18.50
2014,10,10,12,12,18.50
2014,10,10,12,13,18.50
2014,10,10,12,14,18.60
2014,10,10,12,15,18.60
2014,10,10,12,16,18.60
2014,10,10,12,17,18.60
2014,10,10,12,18,18.60
2014,10,10,12,19,18.60
2014,10,10,12,20,18.60
2014,10,10,12,21,18.70
2014,10,10,12,22,18.70
2014,10,10,12,23,18.70
2014,10,10,12,24,18.70
2014,10,10,12,25,18.70
2014,10,10,12,26,18.70
2014,10,10,12,27,18.80
2014,10,10,12,28,18.80
2014,10,10,12,29,18.80
2014,10,10,12,30,18.80
2014,10,10,12,31,18.80
2014,10,10,12,32,18.80
2014,10,10,12,33,18.80
2014,10,10,12,34,18.80
2014,10,10,12,35,18.70
2014,10,10,12,36,18.70
2014,10,10,12,37,18.70
2014,10,10,12,38,18.70
2014,10,10,12,39,18.70
2014,10,10,12,40,18.70
2014,10,10,12,41,18.60
2014,10,10,12,42,18.60
2014,10,10,12,43,18.60
2014,10,10,12,44,18.60
2014,10,10,12,45,18.60
2014,10,10,12,46,18.60
2014,10,10,12,47,18.50
2014,10,10,12,48,18.50
2014,10,10,12,49,18.40
2014,10,10,12,50,18.40
2014,10,10,12,51,18.40
2014,10,10,12,52,18.40
2014,10,10,12,53,18.40
2014,10,10,12,54,18.40
2014,10,10,12,55,18.40
2014,10,10,12,56,18.40
2014,10,10,12,57,18.40
2014,10,10,12,58,18.50
2014,10,10,12,59,18.60
2014,10,10,13,00,18.60
2014,10,10,13,01,18.60
2014,10,10,13,02,18.60
2014,10,10,13,03,18.60
2014,10,10,13,04,18.60
2014,10,10,13,05,18.60
2014,10,10,13,06,18.60
2014,10,10,13,07,18.60
2014,10,10,13,08,18.60
2014,10,10,13,09,18.60
2014,10,10,13,10,18.60
2014,10,10,13,11,18.70
2014,10,10,13,12,18.70
2014,10,10,13,13,18.70
2014,10,10,13,14,18.70
2014,10,10,13,15,18.70
2014,10,10,13,16,18.70
2014,10,10,13,17,18.70
2014,10,10,13,18,18.60
2014,10,10,13,19,18.60
2014,10,10,13,20,18.60
2014,10,10,13,21,18.50
2014,10,10,13,22,18.40
2014,10,10,13,23,18.40
2014,10,10,13,24,18.30
2014,10,10,13,25,18.30
2014,10,10,13,26,18.20
2014,10,10,13,27,18.10
2014,10,10,13,28,18.10
2014,10,10,13,29,18.00
2014,10,10,13,30,17.90
2014,10,10,13,31,17.90
2014,10,10,13,32,17.80
2014,10,10,13,33,17.80
2014,10,10,13,34,17.80
2014,10,10,13,35,17.70
2014,10,10,13,36,17.70
2014,10,10,13,37,17.60
2014,10,10,13,38,17.60
2014,10,10,13,39,17.60
2014,10,10,13,40,17.60
2014,10,10,13,41,17.50
2014,10,10,13,42,17.50
2014,10,10,13,43,17.40
2014,10,10,13,44,17.40
2014,10,10,13,45,17.40
2014,10,10,13,46,17.40
2014,10,10,13,47,17.30
2014,10,10,13,48,17.30
2014,10,10,13,49,17.30
2014,10,10,13,50,17.30
2014,10,10,13,51,17.30
2014,10,10,13,52,17.20
2014,10,10,13,53,17.20
2014,10,10,13,54,17.20
2014,10,10,13,55,17.20
2014,10,10,13,56,17.10
2014,10,10,13,57,17.10
2014,10,10,13,58,17.10
2014,10,10,13,59,17.00
2014,10,10,14,00,17.00
2014,10,10,14,01,16.90
2014,10,10,14,02,16.90
2014,10,10,14,03,16.90
2014,10,10,14,04,16.90
2014,10,10,14,05,16.90
2014,10,10,14,06,16.90
2014,10,10,14,07,16.80
2014,10,10,14,08,16.80
2014,10,10,14,09,16.90
2014,10,10,14,10,16.90
2014,10,10,14,11,16.90
2014,10,10,14,12,16.90
2014,10,10,14,13,16.90
2014,10,10,14,14,17.00
2014,10,10,14,15,17.00
2014,10,10,14,16,17.10
2014,10,10,14,17,17.10
2014,10,10,14,18,17.10
2014,10,10,14,19,17.20
2014,10,10,14,20,17.20
2014,10,10,14,21,17.20
2014,10,10,14,22,17.30
2014,10,10,14,23,17.30
2014,10,10,14,24,17.30
2014,10,10,14,25,17.30
2014,10,10,14,26,17.30
2014,10,10,14,27,17.40
2014,10,10,14,28,17.40
2014,10,10,14,29,17.40
2014,10,10,14,30,17.40
2014,10,10,14,31,17.50
2014,10,10,14,32,17.50
2014,10,10,14,33,17.50
2014,10,10,14,34,17.50
2014,10,10,14,35,17.60
2014,10,10,14,36,17.60
2014,10,10,14,37,17.60
2014,10,10,14,38,17.60
2014,10,10,14,39,17.60
2014,10,10,14,40,17.60
2014,10,10,14,41,17.60
2014,10,10,14,42,17.70
2014,10,10,14,43,17.70
2014,10,10,14,44,17.70
2014,10,10,14,45,17.70
2014,10,10,14,46,17.70
2014,10,10,14,47,17.70
2014,10,10,14,48,17.70
2014,10,10,14,49,17.70
2014,10,10,14,50,17.70
2014,10,10,14,51,17.70
2014,10,10,14,52,17.70
2014,10,10,14,53,17.70
2014,10,10,14,54,17.70
2014,10,10,14,55,17.70
2014,10,10,14,56,17.70
2014,10,10,14,57,17.70
2014,10,10,14,58,17.70
2014,10,10,14,59,17.70
2014,10,10,15,00,17.70
2014,10,10,15,01,17.70
2014,10,10,15,02,17.70
2014,10,10,15,03,17.70
2014,10,10,15,04,17.70
2014,10,10,15,05,17.70
2014,10,10,15,06,17.70
2014,10,10,15,07,17.70
2014,10,10,15,08,17.60
2014,10,10,15,09,17.60
2014,10,10,15,10,17.60
2014,10,10,15,11,17.60
2014,10,10,15,12,17.60
2014,10,10,15,13,17.50
2014,10,10,15,14,17.50
2014,10,10,15,15,17.50
2014,10,10,15,16,17.50
2014,10,10,15,17,17.50
2014,10,10,15,18,17.50
2014,10,10,15,19,17.40
2014,10,10,15,20,17.40
2014,10,10,15,21,17.40
2014,10,10,15,22,17.40
2014,10,10,15,23,17.40
2014,10,10,15,24,17.40
2014,10,10,15,25,17.40
2014,10,10,15,26,17.40
2014,10,10,15,27,17.40
2014,10,10,15,28,17.30
2014,10,10,15,29,17.30
2014,10,10,15,30,17.30
2014,10,10,15,31,17.30
2014,10,10,15,32,17.30
2014,10,10,15,33,17.30
2014,10,10,15,34,17.30
2014,10,10,15,35,17.30
2014,10,10,15,36,17.30
2014,10,10,15,37,17.30
2014,10,10,15,38,17.20
2014,10,10,15,39,17.20
2014,10,10,15,40,17.20
2014,10,10,15,41,17.20
2014,10,10,15,42,17.20
2014,10,10,15,43,17.20
2014,10,10,15,44,17.20
2014,10,10,15,45,17.20
2014,10,10,15,46,17.20
2014,10,10,15,47,17.20
2014,10,10,15,48,17.20
2014,10,10,15,49,17.20
2014,10,10,15,50,17.20
2014,10,10,15,51,17.20
2014,10,10,15,52,17.20
2014,10,10,15,53,17.20
2014,10,10,15,54,17.20
2014,10,10,15,55,17.20
2014,10,10,15,56,17.20
2014,10,10,15,57,17.20
2014,10,10,15,58,17.20
2014,10,10,15,59,17.20
2014,10,10,16,00,17.20
2014,10,10,16,01,17.20
2014,10,10,16,02,17.20
2014,10,10,16,03,17.20
2014,10,10,16,04,17.20
2014,10,10,16,05,17.20
2014,10,10,16,06,17.20
2014,10,10,16,07,17.20
2014,10,10,16,08,17.20
2014,10,10,16,09,17.20
2014,10,10,16,10,17.20
2014,10,10,16,11,17.20
2014,10,10,16,12,17.20
2014,10,10,16,13,17.20
2014,10,10,16,14,17.20
2014,10,10,16,15,17.20
2014,10,10,16,16,17.20
2014,10,10,16,17,17.20
2014,10,10,16,18,17.20
2014,10,10,16,19,17.20
2014,10,10,16,20,17.20
2014,10,10,16,21,17.20
2014,10,10,16,22,17.20
2014,10,10,16,23,17.20
2014,10,10,16,24,17.20
2014,10,10,16,25,17.20
2014,10,10,16,26,17.20
2014,10,10,16,27,17.10
2014,10,10,16,28,17.10
2014,10,10,16,29,17.10
2014,10,10,16,30,17.00
2014,10,10,16,31,17.00
2014,10,10,16,32,16.90
2014,10,10,16,33,16.90
2014,10,10,16,34,16.80
2014,10,10,16,35,16.80
2014,10,10,16,36,16.80
2014,10,10,16,37,16.80
2014,10,10,16,38,16.70
2014,10,10,16,39,16.70
2014,10,10,16,40,16.60
2014,10,10,16,41,16.60
2014,10,10,16,42,16.60
2014,10,10,16,43,16.50
2014,10,10,16,44,16.50
2014,10,10,16,45,16.50
2014,10,10,16,46,16.40
2014,10,10,16,47,16.40
2014,10,10,16,48,16.40
2014,10,10,16,49,16.40
2014,10,10,16,50,16.40
2014,10,10,16,51,16.40
2014,10,10,16,52,16.30
2014,10,10,16,53,16.30
2014,10,10,16,54,16.20
2014,10,10,16,55,16.10
2014,10,10,16,56,16.00
2014,10,10,16,57,15.90
2014,10,10,16,58,15.80
2014,10,10,16,59,15.60
2014,10,10,17,00,15.50
2014,10,10,17,01,15.40
2014,10,10,17,02,15.30
2014,10,10,17,03,15.20
2014,10,10,17,04,15.10
2014,10,10,17,05,15.00
2014,10,10,17,06,14.90
2014,10,10,17,07,14.80
2014,10,10,17,08,14.80
2014,10,10,17,09,14.70
2014,10,10,17,10,14.60
2014,10,10,17,11,14.60
2014,10,10,17,12,14.50
2014,10,10,17,13,14.50
2014,10,10,17,14,14.40
2014,10,10,17,15,14.40
2014,10,10,17,16,14.30
2014,10,10,17,17,14.30
2014,10,10,17,18,14.30
2014,10,10,17,19,14.20
2014,10,10,17,20,14.20
2014,10,10,17,21,14.20
2014,10,10,17,22,14.20
2014,10,10,17,23,14.10
2014,10,10,17,24,14.10
2014,10,10,17,25,14.10
2014,10,10,17,26,14.10
2014,10,10,17,27,14.10
2014,10,10,17,28,14.10
2014,10,10,17,29,14.10
2014,10,10,17,30,14.10
2014,10,10,17,31,14.10
2014,10,10,17,32,14.10
2014,10,10,17,33,14.10